GW5715 Weather Reports


time (UTC)temp
C
wind
direction
speed
KPH
gust
KPH
rain 1hr
cm
rain 24hr
cm
rain mn
cm
humidity
%
barometer
mb
20260504210045 23 308 0.0 0.0 0.00 0.00 0.00 80 1007.9
20260504205543 23 319 0.0 0.0 0.00 0.00 0.00 81 1008.0
20260504205040 23 320 0.0 0.0 0.00 0.00 0.00 81 1007.6
20260504204538 23 338 0.0 0.0 0.00 0.00 0.00 81 1007.8
20260504204037 23 274 0.0 0.0 0.00 0.00 0.00 80 1008.0
20260504203535 23 321 0.0 0.0 0.00 0.00 0.00 80 1007.8
20260504203032 23 281 0.0 0.0 0.00 0.00 0.00 80 1007.8
20260504202527 23 232 1.6 3.2 0.00 0.00 0.00 79 1007.7
20260504202024 23 337 0.0 0.0 0.00 0.00 0.00 79 1007.6
20260504201521 23 256 0.0 0.0 0.00 0.00 0.00 79 1007.6
20260504201019 23 329 0.0 0.0 0.00 0.00 0.00 79 1007.5
20260504200515 23 292 0.0 0.0 0.00 0.00 0.00 78 1007.3
20260504200012 23 243 0.0 0.0 0.00 0.00 0.00 78 1007.5
20260504195508 23 289 0.0 0.0 0.00 0.00 0.00 78 1007.3
20260504195005 23 311 0.0 0.0 0.00 0.00 0.00 78 1007.5
20260504194501 23 301 0.0 0.0 0.00 0.00 0.00 78 1007.8
20260504193957 23 311 0.0 0.0 0.00 0.00 0.00 78 1007.9
20260504193454 23 338 0.0 0.0 0.00 0.00 0.00 78 1007.9
20260504192953 23 314 0.0 0.0 0.00 0.00 0.00 78 1007.9
20260504192449 23 317 0.0 0.0 0.00 0.00 0.00 79 1007.9
20260504191949 23 292 0.0 0.0 0.00 0.00 0.00 79 1007.6
20260504191446 23 305 0.0 0.0 0.00 0.00 0.00 79 1008.0
20260504190941 23 295 0.0 0.0 0.00 0.00 0.00 79 1007.9
20260504190437 23 304 0.0 0.0 0.00 0.00 0.00 79 1008.1
20260504185934 23 326 0.0 0.0 0.00 0.00 0.00 79 1008.0
20260504185432 23 318 0.0 0.0 0.00 0.00 0.00 79 1007.9
20260504184927 23 341 0.0 0.0 0.00 0.00 0.00 79 1008.0
20260504184423 23 30 0.0 0.0 0.00 0.00 0.00 79 1008.2
20260504183919 23 204 0.0 0.0 0.00 0.00 0.00 79 1008.4
20260504183417 23 310 0.0 0.0 0.00 0.00 0.00 79 1008.3
20260504182915 23 278 0.0 0.0 0.00 1.04 1.04 78 1008.4
20260504182411 23 186 0.0 0.0 0.00 1.04 1.04 78 1008.7
20260504181908 23 330 0.0 0.0 0.00 1.04 1.04 78 1008.7
20260504181405 23 271 0.0 0.0 0.00 1.04 1.04 78 1008.5
20260504180904 23 298 0.0 0.0 0.00 1.04 1.04 77 1008.8
20260504180402 23 129 0.0 0.0 0.00 1.04 1.04 77 1008.8
20260504175900 23 309 0.0 0.0 0.00 1.04 1.04 78 1009.1
20260504175356 23 326 0.0 0.0 0.00 1.04 1.04 77 1008.9
20260504174855 24 43 0.0 0.0 0.00 1.04 1.04 76 1008.8
20260504174352 24 309 0.0 0.0 0.00 1.04 1.04 75 1008.7
20260504173849 25 326 0.0 0.0 0.00 1.04 1.04 73 1008.8
20260504173345 25 312 0.0 0.0 0.00 1.04 1.04 70 1009.0
20260504172843 25 156 1.6 4.8 0.00 1.04 1.04 69 1008.8
20260504172339 25 122 3.2 8.0 0.00 1.04 1.04 69 1008.4
20260504171835 25 136 0.0 0.0 0.00 1.04 1.04 70 1008.3
20260504171332 25 219 0.0 0.0 0.00 1.04 1.04 72 1008.5
20260504170830 24 179 0.0 0.0 0.00 1.04 1.04 72 1008.1
20260504170326 24 197 0.0 0.0 0.00 1.04 1.04 72 1008.2
20260504160244 23 156 1.6 3.2 0.00 1.04 1.04 75 1008.2
20260504150710 24 119 0.0 0.0 0.00 1.04 1.04 75 1008.0
20260504150207 24 144 1.6 3.2 0.00 1.04 1.04 74 1007.8
20260504141136 24 121 0.0 0.0 0.00 1.04 1.04 78 1007.1
20260504140633 23 165 4.8 9.7 0.00 1.04 1.04 79 1007.1
20260504140128 23 198 4.8 8.0 0.00 1.04 1.04 82 1006.9
20260504130556 22 110 8.0 11.3 0.13 0.94 0.94 92 1005.9
20260504110444 32 308 0.0 0.0 0.00 0.56 0.56 46 1004.3
20260504100407 32 291 3.2 8.0 0.00 0.56 0.56 48 1004.6
20260504081800 32 306 0.0 0.0 0.00 0.56 0.56 53 1006.3
20260504081256 32 350 0.0 1.6 0.00 0.56 0.56 53 1006.6
20260504080753 32 359 1.6 3.2 0.00 0.56 0.56 52 1006.7
20260504080249 32 66 0.0 0.0 0.00 0.56 0.56 53 1006.7
20260504070217 32 248 0.0 0.0 0.00 0.56 0.56 58 1008.4
20260504060137 31 358 0.0 0.0 0.00 0.56 0.56 62 1009.0
20260504050605 28 32 3.2 4.8 0.00 0.56 0.56 71 1009.6
20260504045559 28 277 3.2 3.2 0.00 0.56 0.56 71 1009.6
20260504045054 28 296 0.0 0.0 0.00 0.56 0.56 74 1009.5
20260504044552 28 299 0.0 1.6 0.00 0.56 0.56 75 1009.5
20260504044049 28 280 0.0 0.0 0.00 0.56 0.56 75 1009.6
20260504043546 27 115 0.0 0.0 0.00 0.56 0.56 77 1009.5
20260504043043 27 282 0.0 0.0 0.00 0.56 0.56 77 1009.6
20260504042540 27 36 1.6 8.0 0.00 0.56 0.56 77 1009.6
20260504042037 27 316 1.6 3.2 0.00 0.56 0.56 77 1009.7
20260504041533 27 337 0.0 0.0 0.00 0.56 0.56 79 1009.7
20260504041029 27 356 0.0 0.0 0.00 0.56 0.56 80 1009.9
20260504040527 27 23 8.0 12.9 0.00 0.56 0.56 80 1009.7
20260504040024 26 275 0.0 0.0 0.00 0.56 0.56 82 1009.6
20260504035521 26 342 0.0 0.0 0.00 0.56 0.56 84 1009.7
20260504035017 26 248 0.0 0.0 0.00 0.56 0.56 84 1009.5
20260504034514 26 290 4.8 4.8 0.00 0.56 0.56 84 1009.6
20260504034011 26 304 0.0 1.6 0.00 0.56 0.56 84 1009.3
20260504033509 26 253 0.0 1.6 0.00 0.56 0.56 85 1009.7
20260504033006 25 21 0.0 0.0 0.00 0.56 0.56 87 1009.2
20260504032503 25 301 0.0 0.0 0.00 0.56 0.56 88 1009.6
20260504032000 25 356 1.6 3.2 0.00 0.56 0.56 88 1009.3
20260504031456 25 5 1.6 3.2 0.00 0.56 0.56 89 1009.3
20260504030953 25 339 0.0 0.0 0.00 0.56 0.56 91 1009.0
20260504030450 24 303 1.6 3.2 0.00 0.56 0.56 91 1009.3
20260504025946 24 285 0.0 0.0 0.00 0.56 0.56 91 1009.2
20260504025443 24 326 0.0 0.0 0.00 0.56 0.56 92 1009.1
20260504024940 23 267 0.0 0.0 0.00 0.56 0.56 92 1009.2
20260504024437 23 217 0.0 0.0 0.00 0.56 0.56 92 1009.0
20260504023934 23 337 0.0 0.0 0.00 0.56 0.56 93 1008.9
20260504023430 23 288 0.0 0.0 0.00 0.56 0.56 93 1008.9
20260504022926 23 328 0.0 0.0 0.00 0.56 0.56 93 1008.9
20260504022423 22 276 1.6 1.6 0.00 0.56 0.56 92 1008.5
20260504021920 22 247 0.0 0.0 0.00 0.56 0.56 92 1008.9
20260504021417 22 248 0.0 0.0 0.00 0.56 0.56 93 1008.9
20260504020914 22 263 0.0 0.0 0.00 0.56 0.56 93 1008.8
20260504020411 21 296 0.0 0.0 0.00 0.56 0.56 93 1008.5
20260504015907 22 315 0.0 0.0 0.00 0.56 0.56 94 1008.5
20260504015403 21 330 0.0 0.0 0.00 0.56 0.56 93 1008.3
20260504014859 21 330 0.0 0.0 0.00 0.56 0.56 93 1008.3
20260504014355 21 301 0.0 0.0 0.00 0.56 0.56 93 1008.3
20260504013853 21 316 0.0 0.0 0.00 0.56 0.56 93 1008.2
20260504013351 21 292 0.0 0.0 0.00 0.56 0.56 93 1008.4
20260504012847 21 337 0.0 0.0 0.00 0.56 0.56 93 1008.8
20260504012345 21 323 0.0 0.0 0.00 0.56 0.56 93 1008.9
20260504011842 21 332 0.0 0.0 0.00 0.56 0.56 93 1008.8
20260504011338 21 313 0.0 0.0 0.00 0.56 0.56 92 1008.5
20260504010835 21 341 0.0 0.0 0.30 0.56 0.56 92 1008.8
20260504010330 21 21 0.0 0.0 1.50 0.56 0.56 92 1008.2
20260504005827 21 320 0.0 0.0 1.19 0.46 0.46 91 1008.3
20260504005324 21 308 0.0 0.0 1.85 0.30 0.30 89 1009.0
20260504004822 22 324 0.0 0.0 1.55 0.25 0.25 86 1008.5
20260504004319 22 325 0.0 0.0 0.00 0.00 0.00 83 1008.9
20260504003815 22 294 0.0 0.0 0.00 0.00 0.00 84 1008.9
20260504003312 22 44 1.6 1.6 0.00 0.00 0.00 86 1009.1
20260504002809 22 141 1.6 1.6 0.00 0.00 0.00 90 1008.7
20260504002306 23 1 0.0 0.0 0.00 0.00 0.00 92 1008.9
20260504001803 23 342 0.0 0.0 0.00 0.00 0.00 91 1008.7
20260504001300 23 331 0.0 0.0 0.00 0.00 0.00 92 1008.8
20260504000757 23 97 0.0 0.0 0.00 0.00 0.00 91 1008.4
20260504000254 23 316 0.0 0.0 0.00 0.00 0.00 91 1008.3
20260503235752 23 313 0.0 0.0 0.00 0.00 0.00 91 1008.3
20260503235249 23 315 0.0 0.0 0.00 0.00 0.00 91 1008.0
20260503234747 23 316 0.0 0.0 0.00 0.00 0.00 91 1008.1
20260503234245 23 317 0.0 0.0 0.00 0.00 0.00 90 1008.0
20260503233742 23 332 0.0 0.0 0.00 0.00 0.00 90 1008.1
20260503233237 23 287 0.0 0.0 0.00 0.00 0.00 91 1008.1
20260503232734 23 255 0.0 0.0 0.00 0.00 0.00 90 1007.7
20260503232232 23 271 0.0 0.0 0.00 0.00 0.00 90 1007.7
20260503231730 23 277 0.0 0.0 0.00 0.00 0.00 90 1007.7
20260503231226 23 317 0.0 0.0 0.00 0.00 0.00 91 1007.7
20260503230722 23 307 0.0 0.0 0.00 0.00 0.00 91 1007.9
20260503230220 23 340 0.0 0.0 0.00 0.00 0.00 91 1007.8
20260503225717 23 239 0.0 0.0 0.00 0.00 0.00 90 1007.7
20260503225217 23 301 0.0 0.0 0.00 0.00 0.00 91 1007.8
20260503224715 23 327 0.0 0.0 0.00 0.00 0.00 91 1007.7
20260503224212 23 325 0.0 0.0 0.00 0.00 0.00 91 1007.5
20260503223710 23 319 0.0 0.0 0.00 0.00 0.00 91 1007.2
20260503223207 23 312 0.0 0.0 0.00 0.00 0.00 91 1007.0
20260503222703 23 319 0.0 0.0 0.00 0.00 0.00 91 1007.2
20260503222201 23 317 0.0 0.0 0.00 0.00 0.00 91 1007.2
20260503221700 23 324 0.0 0.0 0.00 0.00 0.00 91 1007.1
20260503221156 23 315 0.0 0.0 0.00 0.00 0.00 91 1006.6
20260503220653 23 295 0.0 0.0 0.00 0.00 0.00 91 1006.7
20260503220149 23 312 0.0 0.0 0.00 0.00 0.00 91 1006.7
20260503215647 23 358 0.0 0.0 0.00 0.00 0.00 91 1006.8
20260503215143 23 317 0.0 0.0 0.00 0.00 0.00 90 1006.4
20260503214643 23 300 0.0 0.0 0.00 0.00 0.00 90 1006.6
20260503214138 23 230 1.6 3.2 0.00 0.00 0.00 90 1006.3
20260503213637 23 325 1.6 3.2 0.00 0.00 0.00 90 1006.4
20260503213133 23 321 0.0 0.0 0.00 0.00 0.00 90 1006.3
20260503212631 23 283 0.0 1.6 0.00 0.00 0.00 89 1006.3
20260503212128 23 311 0.0 0.0 0.00 0.00 0.00 89 1006.5
20260503211626 23 256 0.0 3.2 0.00 0.00 0.00 89 1006.5
20260503211121 23 327 0.0 1.6 0.00 0.00 0.00 89 1006.6
20260503210618 23 233 0.0 0.0 0.00 0.00 0.00 89 1006.6